Weather History for Leonardtown, MD

Change the Weather History Date:

Sunday, January 26, 2014

  Actual Average (KNHK) Record (KNHK)
Temperature  
Mean Temperature 28 °F -  
Max Temperature 39 °F 43 °F 63 °F (1984)
Min Temperature 17 °F 26 °F 13 °F (1982)
Degree Days  
Heating Degree Days 37    
Moisture  
Dew Point 8 °F    
Average Humidity 42    
Maximum Humidity 69    
Minimum Humidity 26    
Precipitation  
Precipitation 0.00 in - - ()
Sea Level Pressure  
Sea Level Pressure 29.86 in    
Wind  
Wind Speed 4 mph (SSW)    
Max Wind Speed 10 mph    
Max Gust Speed 18 mph    
Visibility 10 miles    
Events      
Averages and records for this station are not official NWS values.
T = Trace of Precipitation, MM = Missing Value Source: NWS Daily Summary

Daily Weather History Graph

Daily Weather History Graph

Search for Another Location

Airport:

Trip Planner

Search our weather history database for the weather conditions in past years. The results will help you decide how hot, cold, wet, or windy it might be!

Date:

Astronomy

Jan. 26, 2014 Rise Set
Actual Time 7:15 AM EST 5:21 PM EST
Civil Twilight 6:47 AM EST 5:50 PM EST
Nautical Twilight 6:15 AM EST 6:22 PM EST
Astronomical Twilight 5:44 AM EST 6:53 PM EST
Moon 2:50 AM EST (1/26) 1:09 PM EST (1/26)
Length of Visible Light 11h 02m
Length of Day
10h 05m
Waning Crescent, 24% of the Moon is Illuminated
Jan 26
Waning Crescent
Jan 30
New
Feb 6
First Quarter
Feb 14
Full
Feb 22
Last Quarter

Hourly Weather History & Observations

Time (EST) Temp. Windchill Dew Point Humidity Pressure Visibility Wind Dir Wind Speed Gust Speed Precip Events Conditions
12:10 AM 32.0 °F 28.7 °F 23.0 °F 69% 29.67 in 10.0 mi WSW 3.5 mph - N/A   Overcast
12:30 AM 32.0 °F 25.6 °F 23.0 °F 69% 29.68 in 10.0 mi WSW 6.9 mph - N/A   Overcast
12:50 AM 32.0 °F 27.5 °F 23.0 °F 69% 29.70 in 10.0 mi West 4.6 mph - N/A   Overcast
1:10 AM 32.0 °F 23.6 °F 19.4 °F 60% 29.71 in 10.0 mi West 10.4 mph 18.4 mph N/A   Overcast
1:30 AM 32.0 °F 27.5 °F 17.6 °F 55% 29.73 in 10.0 mi West 4.6 mph 9.2 mph N/A   Scattered Clouds
1:51 AM 30.2 °F 21.3 °F 8.6 °F 40% 29.75 in 10.0 mi West 10.4 mph 18.4 mph N/A   Scattered Clouds
2:11 AM 30.2 °F 23.4 °F 5.0 °F 34% 29.77 in 10.0 mi WNW 6.9 mph - N/A   Clear
2:31 AM 28.4 °F 19.1 °F 3.2 °F 34% 29.78 in 10.0 mi WNW 10.4 mph - N/A   Clear
2:51 AM 28.4 °F 22.2 °F 3.2 °F 34% 29.79 in 10.0 mi WNW 5.8 mph - N/A   Clear
3:11 AM 28.4 °F - 3.2 °F 34% 29.81 in 10.0 mi Calm Calm - N/A   Clear
3:31 AM 28.4 °F 24.6 °F 3.2 °F 34% 29.82 in 10.0 mi WNW 3.5 mph - N/A   Clear
3:51 AM 26.6 °F 22.6 °F 3.2 °F 37% 29.83 in 10.0 mi WNW 3.5 mph - N/A   Clear
4:11 AM 26.6 °F 22.6 °F 5.0 °F 40% 29.84 in 10.0 mi WNW 3.5 mph - N/A   Clear
4:31 AM 26.6 °F - 3.2 °F 37% 29.85 in 10.0 mi Calm Calm - N/A   Clear
4:51 AM 23.0 °F - 3.2 °F 43% 29.87 in 10.0 mi Calm Calm - N/A   Clear
5:11 AM 23.0 °F - 3.2 °F 43% 29.91 in 10.0 mi Calm Calm - N/A   Clear
5:31 AM 21.2 °F 13.6 °F 5.0 °F 50% 29.92 in 10.0 mi West 5.8 mph - N/A   Clear
5:51 AM 23.0 °F - 3.2 °F 43% 29.92 in 10.0 mi Calm Calm - N/A   Clear
6:11 AM 23.0 °F - 3.2 °F 43% 29.93 in 10.0 mi Calm Calm - N/A   Clear
6:31 AM 19.4 °F - 3.2 °F 49% 29.93 in 10.0 mi Calm Calm - N/A   Clear
6:51 AM 17.6 °F - 3.2 °F 53% 29.94 in 10.0 mi Calm Calm - N/A   Clear
7:11 AM 17.6 °F - 3.2 °F 53% 29.95 in 10.0 mi Calm Calm - N/A   Clear
7:31 AM 17.6 °F - 3.2 °F 53% 29.96 in 10.0 mi Calm Calm - N/A   Clear
7:51 AM 17.6 °F - 5.0 °F 58% 29.96 in 10.0 mi Calm Calm - N/A   Clear
8:11 AM 17.6 °F - 5.0 °F 58% 29.95 in 10.0 mi Calm Calm - N/A   Clear
8:31 AM 19.4 °F - 5.0 °F 54% 29.96 in 10.0 mi Calm Calm - N/A   Clear
8:51 AM 21.2 °F - 6.8 °F 54% 29.94 in 10.0 mi Calm Calm - N/A   Clear
9:11 AM 24.8 °F - 3.2 °F 40% 29.95 in 10.0 mi Calm Calm - N/A   Clear
9:31 AM 26.6 °F - 1.4 °F 34% 29.94 in 10.0 mi Calm Calm - N/A   Clear
9:51 AM 26.6 °F - 1.4 °F 34% 29.94 in 10.0 mi Calm Calm - N/A   Clear
10:11 AM 28.4 °F - 3.2 °F 34% 29.96 in 10.0 mi Calm Calm - N/A   Clear
10:31 AM 28.4 °F 24.6 °F 3.2 °F 34% 29.96 in 10.0 mi SE 3.5 mph - N/A   Clear
10:52 AM 30.2 °F - 1.4 °F 29% 29.95 in 10.0 mi Calm Calm - N/A   Clear
11:12 AM 30.2 °F 24.3 °F 3.2 °F 32% 29.94 in 10.0 mi SE 5.8 mph - N/A   Clear
11:32 AM 32.0 °F 24.8 °F 1.4 °F 27% 29.93 in 10.0 mi SW 8.1 mph - N/A   Clear
11:52 AM 32.0 °F 23.6 °F 1.4 °F 27% 29.92 in 10.0 mi SSW 10.4 mph - N/A   Clear
12:12 PM 32.0 °F 27.5 °F 1.4 °F 27% 29.91 in 10.0 mi SSW 4.6 mph - N/A   Clear
12:32 PM 32.0 °F 27.5 °F 3.2 °F 30% 29.89 in 10.0 mi SSW 4.6 mph - N/A   Clear
12:52 PM 32.0 °F 27.5 °F 3.2 °F 30% 29.88 in 10.0 mi SSE 4.6 mph - N/A   Clear
1:12 PM 32.0 °F 27.5 °F 3.2 °F 30% 29.87 in 10.0 mi South 4.6 mph - N/A   Mostly Cloudy
1:32 PM 32.0 °F 27.5 °F 3.2 °F 30% 29.87 in 10.0 mi SSE 4.6 mph - N/A   Overcast
1:52 PM 32.0 °F - 5.0 °F 32% 29.86 in 10.0 mi Calm Calm - N/A   Overcast
2:12 PM 32.0 °F 27.5 °F 5.0 °F 32% 29.86 in 10.0 mi SSE 4.6 mph - N/A   Overcast
2:32 PM 32.0 °F - 6.8 °F 35% 29.88 in 10.0 mi Calm Calm - N/A   Overcast
2:52 PM 33.8 °F - 6.8 °F 32% 29.88 in 10.0 mi Calm Calm - N/A   Overcast
3:12 PM 33.8 °F - 5.0 °F 30% 29.87 in 10.0 mi Calm Calm - N/A   Scattered Clouds
3:32 PM 33.8 °F - 5.0 °F 30% 29.86 in 10.0 mi Calm Calm - N/A   Clear
3:52 PM 33.8 °F - 5.0 °F 30% 29.86 in 10.0 mi Calm Calm - N/A   Scattered Clouds
4:12 PM 35.6 °F 29.9 °F 5.0 °F 28% 29.85 in 10.0 mi SSE 6.9 mph - N/A   Scattered Clouds
4:32 PM 35.6 °F - 3.2 °F 26% 29.83 in 10.0 mi Calm Calm - N/A   Clear
4:52 PM 33.8 °F 30.8 °F 3.2 °F 28% 29.83 in 10.0 mi South 3.5 mph - N/A   Clear
5:12 PM 33.8 °F - 3.2 °F 28% 29.85 in 10.0 mi Calm Calm - N/A   Clear
5:32 PM 32.0 °F - 3.2 °F 30% 29.86 in 10.0 mi Calm Calm - N/A   Clear
5:52 PM 32.0 °F - 3.2 °F 30% 29.86 in 10.0 mi Calm Calm - N/A   Clear
6:12 PM 32.0 °F - 5.0 °F 32% 29.86 in 10.0 mi Calm Calm - N/A   Clear
6:32 PM 32.0 °F 27.5 °F 6.8 °F 35% 29.86 in 10.0 mi SE 4.6 mph - N/A   Clear
6:52 PM 32.0 °F 28.7 °F 12.2 °F 44% 29.86 in 10.0 mi SE 3.5 mph - N/A   Clear
7:12 PM 32.0 °F 26.4 °F 15.8 °F 51% 29.85 in 10.0 mi SE 5.8 mph - N/A   Clear
7:33 PM 32.0 °F 28.7 °F 17.6 °F 55% 29.83 in 10.0 mi SE 3.5 mph - N/A   Clear
7:53 PM 32.0 °F 27.5 °F 19.4 °F 60% 29.83 in 10.0 mi SE 4.6 mph - N/A   Clear
8:13 PM 32.0 °F 27.5 °F 21.2 °F 64% 29.82 in 10.0 mi SE 4.6 mph - N/A   Clear
8:33 PM 32.0 °F 27.5 °F 21.2 °F 64% 29.81 in 10.0 mi SSE 4.6 mph - N/A   Clear
8:53 PM 33.8 °F 29.6 °F 21.2 °F 60% 29.81 in 10.0 mi South 4.6 mph - N/A   Clear
9:13 PM 35.6 °F 29.9 °F 19.4 °F 52% 29.81 in 10.0 mi South 6.9 mph - N/A   Clear
9:33 PM 35.6 °F 29.2 °F 19.4 °F 52% 29.81 in 10.0 mi South 8.1 mph - N/A   Clear
9:53 PM 35.6 °F 31.7 °F 19.4 °F 52% 29.81 in 10.0 mi South 4.6 mph - N/A   Clear
10:13 PM 35.6 °F 30.7 °F 19.4 °F 52% 29.81 in 10.0 mi South 5.8 mph - N/A   Clear
10:33 PM 37.4 °F 31.4 °F 19.4 °F 48% 29.81 in 10.0 mi South 8.1 mph - N/A   Clear
10:53 PM 39.2 °F 33.6 °F 19.4 °F 45% 29.81 in 10.0 mi SSW 8.1 mph - N/A   Clear
11:13 PM 39.2 °F 33.6 °F 19.4 °F 45% 29.81 in 10.0 mi SSW 8.1 mph - N/A   Clear
11:33 PM 39.2 °F 33.6 °F 19.4 °F 45% 29.81 in 10.0 mi SSW 8.1 mph - N/A   Clear
11:53 PM 39.2 °F 33.0 °F 19.4 °F 45% 29.81 in 10.0 mi SSW 9.2 mph - N/A   Clear